RH
5 5 5 9 26 50 73 83 84 87 94 99 100 98 99 100 90 76 88 66 62 85 97 98 98 99 100 99 100 93 59 61 28 26 26 26 27 27 26 25 24 22 22
5 5 6 6 9 34 58 66 73 79 78 80 98 100 97 100 96 80 76 87 72 74 87 99 97 95 98 99 100 96 73 68 39 27 28 27 28 29 29 27 25 23 22
6 6 6 6 6 7 24 60 69 78 78 76 78 100 100 100 99 85 84 91 93 80 83 95 99 97 94 98 99 100 88 62 40 32 27 30 30 30 29 28 27 24 24
7 7 6 6 6 6 7 8 41 60 70 75 74 86 97 100 100 95 90 88 95 98 91 89 89 98 96 96 95 98 100 96 52 36 28 29 31 32 30 28 28 25 25
7 7 7 6 6 5 6 7 8 22 45 56 73 76 76 99 100 99 90 87 86 88 96 97 94 88 91 94 93 93 96 99 94 50 33 31 32 33 32 30 28 26 26
6 7 8 8 8 7 7 7 9 14 31 47 63 83 74 100 100 100 89 94 99 96 92 91 96 99 94 96 93 92 92 93 97 98 51 37 37 34 33 32 30 28 27
5 6 6 8 8 9 8 8 10 31 45 62 81 100 97 99 100 100 94 94 100 98 99 96 98 93 98 94 98 97 87 91 100 96 99 84 57 38 34 32 31 29 27
5 5 5 6 7 8 10 10 10 39 64 78 87 99 98 98 87 94 100 95 94 100 99 92 95 95 94 95 98 99 98 87 86 98 99 99 100 71 40 32 32 30 28
5 4 4 5 5 7 8 10 11 14 74 96 83 96 98 98 99 90 96 99 95 92 93 97 91 98 93 91 92 97 99 90 86 81 86 98 99 99 99 57 31 31 30
7 6 5 4 4 4 6 9 11 12 15 68 98 98 98 99 98 99 98 99 100 94 65 68 86 96 97 97 96 94 95 95 94 89 76 82 86 97 100 98 88 43 34
9 8 8 7 6 5 4 4 8 12 14 16 53 82 100 99 100 98 95 89 81 95 98 97 96 93 81 88 87 88 92 100 97 99 93 90 90 85 91 100 96 98 76
12 12 11 10 9 7 6 4 3 6 12 15 18 55 74 82 94 97 99 89 84 83 89 94 99 98 99 97 96 89 82 86 89 90 98 94 89 90 91 88 99 97 98
14 14 13 13 11 10 8 6 5 4 5 12 17 19 23 43 68 81 93 98 98 83 90 81 91 92 96 100 99 93 88 86 80 86 90 97 92 89 92 87 86 90 94
15 15 15 14 14 12 10 8 6 5 4 4 7 15 19 21 24 32 40 59 66 64 71 100 92 100 100 99 100 97 94 90 92 90 92 84 89 96 88 90 91 89 89
15 16 16 16 16 14 12 10 8 7 6 5 4 5 7 13 19 22 25 34 64 98 97 63 98 76 97 95 94 98 98 100 95 94 89 81 91 81 95 94 89 88 94
16 16 16 17 17 16 15 13 11 9 7 6 6 5 5 6 9 15 21 28 44 88 98 66 25 23 26 67 83 86 88 94 98 98 100 93 89 93 76 89 94 94 99
20 18 16 17 18 18 17 15 13 11 9 8 7 6 6 5 6 7 10 16 22 27 36 50 30 16 18 20 43 70 83 86 86 89 92 92 90 88 97 80 86 95 100
19 21 21 18 18 19 18 17 16 14 12 10 8 7 6 6 6 6 7 10 15 20 22 13 20 16 15 17 19 19 28 70 86 83 92 93 99 98 91 94 89 85 98
22 21 20 22 20 18 20 19 18 17 15 13 11 9 8 7 6 6 6 9 16 20 15 15 10 12 16 19 20 23 24 28 54 85 87 88 89 95 98 95 92 79 93
21 23 23 21 22 22 20 20 20 20 19 18 15 12 10 9 8 6 5 8 11 12 22 26 23 20 20 24 23 36 26 43 29 43 76 87 90 95 100 98 96 84 90
19 21 23 24 23 23 23 21 22 22 22 22 20 18 16 14 11 9 7 5 6 14 40 41 28 24 30 30 32 39 36 61 40 55 78 72 83 85 90 100 96 98 90
20 21 22 24 25 24 24 24 22 23 23 24 23 22 21 18 17 15 12 8 6 6 15 31 30 45 60 77 54 43 30 28 33 32 38 27 41 64 84 97 95 98 98
21 23 23 24 25 26 25 26 25 23 24 25 25 24 23 23 22 20 17 15 10 7 7 10 11 25 39 66 70 24 25 41 34 13 34 26 29 33 48 80 98 92 94
28 27 27 27 27 27 27 26 27 26 24 25 26 26 25 24 23 22 20 18 18 17 12 8 6 6 9 13 18 38 20 13 11 23 66 54 23 33 31 39 77 94 87
36 34 33 32 31 30 29 28 29 29 27 26 26 27 27 26 26 24 23 24 44 36 25 16 13 12 8 8 10 17 26 45 12 9 33 84 72 98 96 47 63 90 93
45 44 41 38 36 34 32 32 32 32 30 28 27 27 28 28 27 26 27 34 37 41 51 55 62 60 30 17 15 18 16 53 80 43 68 54 34 65 99 99 93 95 95
Wind_Speed
12 12 12 10 4 3 4 4 6 9 7 14 20 20 16 11 8 7 4 5 3 3 4 4 3 3 3 3 3 3 1 1 2 2 2 4 4 5 6 8 9 10 11
13 12 12 11 10 4 4 4 6 9 11 11 11 19 21 16 12 10 8 6 5 3 3 5 4 4 5 6 5 6 3 0 1 0 1 2 3 4 5 6 8 9 11
11 12 12 12 10 10 6 5 5 5 9 15 11 11 19 24 19 14 10 7 6 5 3 5 3 5 4 6 7 8 9 5 4 2 2 2 3 3 4 6 7 9 10
10 10 11 11 11 11 10 8 6 7 7 7 15 10 13 18 19 17 13 9 6 5 5 4 6 5 6 6 7 10 12 11 7 5 4 4 4 4 5 6 7 8 10
9 9 9 10 10 11 12 10 9 7 9 8 8 14 11 14 21 19 16 14 10 8 5 6 5 4 7 7 7 9 11 14 16 11 7 6 6 6 6 7 7 8 10
10 11 10 10 10 10 10 11 11 9 8 8 6 8 8 4 12 16 18 13 13 9 8 7 5 5 9 9 9 9 8 12 15 18 14 10 9 8 8 8 8 8 10
11 11 11 11 11 11 12 13 12 10 9 6 3 10 10 3 4 9 13 13 10 10 10 8 8 8 8 11 13 11 12 11 9 17 18 18 13 11 11 10 9 10 10
10 11 11 11 12 12 12 11 11 9 10 11 4 7 3 10 17 3 8 14 5 11 10 11 12 11 12 12 12 15 17 13 15 10 12 18 19 17 14 13 12 11 12
10 11 12 12 12 12 12 12 11 10 7 8 9 4 3 3 3 8 12 6 2 8 8 9 17 16 15 15 18 18 19 18 14 17 17 11 15 19 19 17 15 14 13
10 11 12 12 12 12 12 11 11 11 9 2 4 5 4 3 3 2 4 4 4 2 8 15 13 13 13 15 19 23 23 21 18 17 14 20 18 13 19 21 21 18 15
8 9 10 11 11 12 12 12 10 9 8 7 1 3 1 1 4 4 7 13 11 10 7 5 3 1 12 12 13 16 20 21 22 20 19 19 17 20 16 18 23 23 21
6 8 9 10 10 11 11 11 10 9 7 6 6 4 5 5 7 7 10 16 17 14 10 8 10 15 17 17 17 16 14 14 19 22 24 21 20 21 20 17 17 22 22
5 6 8 9 10 10 10 10 9 8 7 5 4 4 4 6 9 10 10 13 14 16 10 9 8 11 14 17 19 20 18 14 14 15 21 25 23 22 23 21 21 19 23
2 4 5 7 8 9 10 10 9 8 7 6 6 5 4 5 7 8 9 10 13 12 15 10 9 9 11 12 16 19 20 22 16 14 13 15 23 27 25 23 24 25 24
3 3 4 5 7 8 9 10 10 9 8 7 6 6 6 7 8 8 9 9 9 7 11 11 14 16 17 18 18 18 19 23 26 25 25 23 22 24 28 27 25 27 28
7 6 5 6 6 7 8 9 9 9 9 8 7 6 5 5 6 8 9 10 7 10 12 15 19 22 22 24 24 23 22 22 21 23 24 25 28 25 25 30 29 27 30
10 9 8 7 7 7 7 8 8 8 8 9 9 8 8 8 8 8 9 10 10 13 18 21 20 19 20 22 24 27 28 25 25 26 28 32 30 29 25 26 32 30 31
14 12 11 10 9 8 8 8 8 8 9 9 10 10 11 10 9 9 10 11 12 14 17 23 23 23 21 20 23 23 25 27 29 27 31 31 31 30 29 27 30 32 32
18 16 15 14 13 12 11 10 9 9 9 10 11 11 12 12 12 12 12 12 13 14 17 20 24 24 24 22 22 21 22 24 28 29 28 31 31 29 32 33 29 30 31
22 21 19 18 17 16 15 13 12 11 11 10 11 12 12 13 14 14 15 14 14 16 17 19 21 23 24 24 25 26 27 24 25 25 26 27 26 25 25 28 28 29 27
28 26 25 23 21 20 19 17 16 15 14 13 12 12 13 14 15 16 16 17 17 16 15 18 23 25 24 26 27 27 29 34 34 20 22 28 30 26 25 23 25 26 26
34 32 31 28 26 25 23 22 20 19 18 17 16 15 14 14 14 15 16 17 19 18 17 17 19 21 22 23 24 29 32 36 43 33 32 34 32 33 27 25 26 25 25
40 39 36 34 31 29 27 27 25 23 22 22 20 19 18 17 16 16 16 17 19 19 19 20 22 20 22 22 26 32 30 33 37 42 41 42 34 33 29 28 26 25 28
45 43 41 39 36 33 31 30 28 27 27 25 24 23 22 21 20 20 19 19 18 18 19 20 21 23 25 26 28 30 33 35 38 37 30 38 36 36 30 28 28 28 29
45 47 46 43 40 37 34 33 31 30 30 29 28 27 26 25 23 22 22 21 21 22 21 21 23 24 25 26 26 28 28 28 36 38 35 26 26 29 30 29 22 23 26
44 45 47 45 42 39 37 34 33 32 32 30 29 30 29 28 27 25 24 23 25 23 22 22 23 24 25 25 24 23 23 26 26 33 14 25 35 31 27 26 16 17 22
Wind_Direction
39 36 32 28 8 287 268 309 352 351 331 262 235 238 243 241 246 256 237 259 255 246 305 281 269 274 262 263 303 281 122 301 106 81 62 49 48 46 36 35 33 26 20
38 34 34 31 26 1 302 298 316 342 352 335 280 238 242 237 233 236 245 251 254 274 303 273 271 272 302 306 309 302 299 323 284 189 26 25 27 29 21 22 24 17 13
37 34 30 29 29 27 356 293 299 309 3 14 347 272 236 242 235 225 228 236 263 261 277 299 285 264 293 293 311 314 318 305 298 285 284 320 343 354 358 4 11 9 5
30 31 31 26 23 21 18 3 290 286 289 345 15 355 256 243 248 229 219 224 242 250 285 290 330 320 289 317 319 319 328 322 311 297 279 283 300 318 329 340 357 357 357
24 29 26 26 24 17 12 11 2 314 287 293 315 352 347 250 245 233 219 217 223 248 268 288 317 321 293 299 293 307 316 321 322 309 290 282 287 298 307 320 339 343 349
26 27 25 27 29 28 20 14 12 2 346 321 302 7 350 253 243 233 220 221 227 236 258 277 303 308 310 311 288 285 289 306 316 322 309 290 289 291 296 307 320 328 338
29 28 24 24 23 27 29 28 20 16 12 354 161 81 53 42 268 241 220 222 224 232 239 267 281 292 304 313 312 308 278 277 293 307 316 316 302 291 293 298 307 316 326
41 39 35 30 27 25 26 31 33 29 30 31 72 107 80 62 58 45 236 219 230 231 246 269 271 280 289 292 292 306 311 284 265 275 294 307 313 309 296 294 298 304 314
46 43 39 35 32 28 27 30 33 35 37 44 41 63 76 51 41 57 77 88 300 298 314 291 276 273 282 294 302 302 303 311 315 270 264 277 296 304 309 303 292 295 303
45 43 40 38 36 33 30 28 28 33 30 36 52 32 46 37 45 10 334 20 49 105 284 300 345 302 294 302 296 293 296 308 312 307 290 262 265 280 297 304 308 295 294
45 42 39 38 37 36 36 33 29 27 25 23 353 196 169 235 24 356 312 314 325 324 334 333 24 298 306 343 6 348 306 286 295 302 302 298 289 258 267 286 296 303 302
42 36 33 32 33 33 34 37 35 31 27 23 12 349 254 263 280 301 304 305 312 313 316 296 292 284 290 285 301 323 353 312 284 289 291 291 289 290 265 256 277 288 296
29 26 23 23 23 25 28 31 31 33 27 26 23 3 340 298 286 289 296 301 311 310 315 318 302 295 282 275 284 287 297 322 324 290 280 282 282 282 283 264 258 271 282
349 3 9 11 11 12 15 18 21 24 29 25 15 6 349 325 315 307 309 314 318 317 302 296 292 268 259 272 275 268 276 287 286 314 318 304 280 276 274 272 263 261 267
274 307 336 354 359 0 3 2 3 8 14 21 22 10 350 339 331 320 315 311 319 325 307 297 297 275 268 280 287 288 280 282 282 277 288 296 298 284 268 269 265 259 262
260 276 299 321 336 345 348 348 348 351 356 3 7 10 3 343 333 324 320 312 294 267 267 283 294 301 298 280 281 286 289 289 291 289 287 290 297 292 286 269 264 263 261
256 264 273 285 303 316 324 327 330 333 338 342 346 350 352 350 345 335 326 316 308 297 292 301 311 313 306 302 286 280 279 287 288 284 285 285 290 290 285 283 269 261 260
250 256 263 269 277 287 294 302 310 316 320 323 328 332 336 340 338 336 332 325 319 312 308 310 316 319 317 308 304 300 290 280 279 282 281 286 287 280 283 287 276 265 260
249 253 258 263 267 272 278 285 292 297 303 309 313 316 319 322 326 330 332 331 326 321 319 314 314 316 318 320 310 302 301 296 287 277 278 286 286 289 278 276 278 265 259
248 252 255 258 261 265 268 273 277 283 289 295 298 301 304 307 312 318 321 322 323 323 323 318 317 318 321 323 321 320 314 309 299 290 281 288 293 286 287 272 278 271 257
249 250 251 255 258 260 263 267 270 274 279 283 287 291 295 299 302 306 312 314 316 318 319 318 319 322 324 324 326 322 314 310 309 312 290 279 280 284 281 292 282 274 263
249 249 251 253 254 257 261 264 265 270 275 278 281 285 290 295 298 300 300 302 305 308 307 308 309 312 315 315 317 312 314 312 316 313 308 296 296 285 288 287 284 285 276
249 249 250 252 253 255 258 261 263 265 269 272 277 281 283 285 287 287 289 292 294 296 298 301 302 304 303 309 306 310 309 307 306 308 312 303 302 299 293 283 282 283 276
249 250 250 251 251 252 254 257 260 263 265 269 272 274 277 281 285 288 290 290 289 289 294 296 295 296 295 298 302 304 305 305 303 305 306 302 305 304 303 297 281 278 285
251 249 249 249 250 251 253 255 257 259 261 263 265 269 273 276 279 284 288 291 290 293 296 295 294 292 295 297 299 301 303 302 301 300 305 306 310 315 306 302 295 291 283
252 249 246 247 249 248 250 250 252 254 257 260 261 263 266 268 273 277 281 282 285 291 293 295 296 295 294 294 297 297 296 294 297 305 288 290 296 309 318 306 305 289 301